Theta_e
326 315 319 316 302 301 297 303 310 318 320 325 327 325 323 325 323 315 342 348 351 355 360 363 364 364 363 362 361 361 361 361 361 360 361 362 362 361 359 358 359 360 357 357 356 357 357 357 355
322 320 318 309 298 293 298 308 308 320 326 325 327 329 326 321 332 337 339 347 351 355 358 361 364 363 363 362 361 361 361 361 360 360 361 362 361 360 359 358 357 357 356 356 355 354 353 353 353
321 317 306 302 298 297 298 308 318 323 328 326 325 333 329 325 337 339 343 348 349 351 358 362 363 363 363 362 361 361 361 361 360 360 361 361 360 359 358 358 356 356 354 354 354 353 353 352 351
307 306 306 298 297 303 306 310 316 320 322 323 327 325 331 335 339 343 346 346 346 353 359 363 363 363 363 362 361 361 361 361 360 360 360 360 359 359 358 356 356 356 353 351 351 352 352 352 351
304 302 297 296 299 306 310 313 314 319 320 322 329 325 328 340 344 343 343 343 345 353 358 360 363 363 363 362 361 361 360 360 360 360 360 360 359 359 358 356 356 355 354 352 351 352 351 350 350
297 300 293 296 299 307 311 314 313 317 321 330 332 332 333 342 341 341 342 340 351 352 356 359 362 362 361 361 361 359 359 359 359 359 360 359 358 358 356 355 353 353 353 353 352 352 351 350 350
294 292 291 295 299 304 310 316 313 313 319 328 330 326 335 336 342 341 339 345 347 350 353 356 358 359 361 360 359 359 358 358 358 358 358 358 358 356 355 354 353 352 351 351 351 351 351 351 350
297 294 292 296 296 298 309 314 316 313 320 335 332 322 327 334 342 341 340 342 341 345 349 350 354 355 355 356 359 358 358 358 357 357 357 357 356 356 356 353 353 353 353 352 351 351 351 350 350
302 292 291 294 298 300 305 306 317 320 326 334 340 337 339 339 344 338 339 337 338 340 341 344 344 346 347 351 355 357 357 357 357 357 356 353 347 349 351 353 353 355 354 354 353 352 352 352 351
298 293 293 298 302 302 305 306 309 317 325 331 333 337 340 337 335 336 336 334 335 335 337 339 339 339 340 346 348 346 349 349 348 348 349 345 342 342 347 352 355 356 355 354 353 353 353 353 345
299 294 298 301 303 305 306 307 310 308 315 326 328 330 329 332 333 338 335 336 336 337 338 338 339 339 339 342 341 341 342 341 342 342 345 342 342 340 347 345 348 347 353 348 348 346 347 344 340
296 301 302 302 304 304 304 308 308 309 315 333 334 334 329 326 333 339 335 336 337 337 338 340 341 341 341 341 341 341 341 341 341 342 344 342 342 348 343 342 343 344 343 343 337 340 341 340 341
299 300 302 305 305 304 306 305 306 307 314 331 335 333 330 327 336 339 338 338 339 337 339 341 342 342 345 341 342 344 343 345 345 347 349 351 351 345 345 343 344 343 343 341 340 338 336 336 338
300 301 301 303 302 304 303 304 306 308 316 319 334 334 334 333 335 337 337 336 337 338 339 342 342 348 346 345 342 344 346 346 348 349 353 351 351 348 346 345 343 341 342 342 342 344 343 342 340
303 298 299 301 302 301 304 300 303 309 318 329 333 332 331 333 336 336 340 338 341 343 346 345 347 354 353 352 352 351 349 353 350 353 353 352 350 346 347 345 346 348 349 351 347 346 345 346 348
299 295 290 298 302 303 300 295 304 308 314 323 333 332 334 330 335 337 342 342 342 344 346 348 351 355 353 353 349 348 346 349 347 351 352 352 351 350 351 349 350 353 355 352 350 347 346 344 341
295 289 290 294 302 301 300 296 304 308 311 316 323 326 328 325 332 333 338 344 342 344 347 350 353 353 352 351 350 349 348 346 344 345 347 348 351 353 350 351 352 353 352 349 348 347 345 342 341
291 290 291 292 298 300 298 297 303 307 309 311 319 320 323 324 326 332 333 341 344 348 349 351 352 352 353 351 349 348 344 343 344 351 353 355 355 354 354 353 353 351 347 346 345 341 340 338 339
297 294 292 295 300 297 297 298 301 305 306 308 316 321 320 327 332 338 333 337 346 349 348 349 349 351 350 349 344 343 341 344 351 351 352 350 350 351 349 348 345 347 342 341 340 337 335 333 328
297 294 292 296 300 297 297 297 301 304 305 307 320 321 324 326 330 333 335 335 332 342 347 350 350 350 349 347 346 344 344 350 347 345 345 345 339 338 334 332 332 333 325 327 325 322 319 322 321
295 292 293 293 298 300 297 295 298 304 306 318 321 321 321 323 323 327 328 330 330 327 348 350 349 350 349 347 349 348 348 345 338 335 334 334 333 332 329 329 327 324 323 320 322 321 317 316 318
291 297 297 296 294 289 298 288 296 301 303 314 318 319 321 322 324 325 325 326 328 327 334 350 350 349 351 351 346 344 341 338 335 331 329 329 329 328 329 327 325 324 323 320 322 323 317 317 313
294 299 296 297 292 290 293 290 294 301 299 306 313 318 317 320 323 325 326 327 328 330 335 348 348 349 350 348 348 344 334 332 330 328 324 323 323 325 327 326 323 321 322 320 320 317 314 315 316
301 296 296 294 291 286 291 292 293 296 300 308 313 316 317 319 322 323 327 327 336 341 343 344 345 346 348 346 345 337 332 329 326 323 321 319 321 323 324 324 325 321 320 320 318 316 313 316 311
298 294 284 282 284 284 294 291 294 301 304 312 312 313 315 317 320 323 327 330 335 343 345 345 345 344 344 345 343 334 331 327 324 324 322 319 320 320 321 322 320 320 319 319 318 315 312 312 310
294 292 285 281 282 285 295 290 294 304 306 314 316 315 316 317 319 326 325 330 338 343 344 345 344 343 342 338 336 333 331 329 327 323 322 321 321 320 321 322 321 320 320 319 317 315 314 313 313
292 291 297 291 291 288 292 295 301 304 305 311 314 314 314 317 317 323 323 335 339 342 343 343 344 339 336 333 329 328 325 324 322 322 323 321 321 323 321 321 319 318 317 317 315 313 312 311 310
295 299 290 291 283 283 289 291 292 297 302 308 312 312 314 316 316 317 330 334 340 341 343 342 336 332 331 329 328 326 326 325 324 324 322 320 321 320 318 317 316 316 316 315 313 311 310 308 307
291 291 292 293 290 286 286 289 300 299 302 303 308 311 315 316 316 316 322 333 338 341 339 334 329 327 326 327 326 325 326 325 323 321 320 319 318 316 316 315 315 313 311 310 307 305 305 304 302
295 292 295 287 290 292 291 290 305 302 304 305 307 311 314 317 320 319 322 328 335 334 331 326 325 325 326 326 325 324 324 322 320 318 317 316 315 314 313 313 311 310 308 304 304 304 303 302 301
Wind_Speed
9 9 6 2 2 2 5 11 6 4 1 9 4 8 3 6 5 6 15 20 22 17 14 16 20 20 19 18 17 17 17 17 17 16 14 13 12 12 11 10 9 10 11 11 10 9 8 8 7
5 7 3 3 3 3 8 12 17 10 9 21 10 6 5 7 12 19 13 22 22 17 13 15 20 20 19 18 17 17 17 16 16 16 14 13 12 12 11 9 8 9 9 9 8 7 6 5 4
4 4 1 5 4 10 6 15 4 7 16 13 7 13 7 7 17 6 21 20 20 15 14 16 20 20 20 19 17 17 17 17 16 16 14 13 11 11 10 8 7 7 7 7 7 6 4 3 2
2 1 4 2 9 12 17 17 5 6 6 7 2 11 7 9 7 15 22 20 18 15 13 17 19 19 19 19 18 17 16 16 15 16 14 12 11 10 9 8 6 6 6 5 4 3 2 0 2
2 3 5 6 10 15 16 20 18 7 6 5 5 7 8 16 26 24 20 18 17 15 12 14 19 18 18 19 18 17 16 16 15 15 14 12 10 9 9 7 5 5 4 3 3 3 3 3 4
3 3 3 13 9 15 20 20 17 9 11 16 14 4 6 21 24 18 19 16 17 16 12 12 17 18 18 18 17 17 16 15 15 14 13 12 10 9 8 7 6 5 4 4 4 4 4 5 6
5 3 6 7 8 20 21 19 16 13 16 16 12 6 7 19 19 19 17 18 16 16 13 11 10 15 16 16 16 16 15 14 13 13 12 12 10 9 8 7 6 6 6 6 6 6 6 8 9
3 3 8 10 15 21 17 17 15 11 4 21 18 10 5 9 18 16 14 19 17 14 13 12 10 9 8 8 14 15 14 14 14 13 12 11 10 9 8 8 8 8 8 8 7 8 8 10 11
5 8 13 21 21 18 12 10 11 11 16 7 7 14 11 13 2 12 17 14 14 13 12 12 10 9 9 7 10 13 15 14 13 12 12 9 5 6 7 8 11 12 11 10 10 10 11 12 13
8 11 26 6 12 13 18 15 15 5 13 18 18 16 22 9 3 2 17 16 15 15 14 12 12 11 11 9 8 6 8 5 5 5 6 5 6 5 8 10 15 14 12 11 12 12 12 12 5
8 23 8 17 16 15 20 21 8 7 7 19 22 22 26 28 20 11 12 18 18 16 13 14 12 11 12 10 6 4 4 4 5 7 7 7 5 5 6 4 4 3 9 4 6 7 6 7 4
15 20 19 14 14 21 21 20 12 6 6 18 26 29 28 24 15 14 18 21 21 20 17 15 14 11 10 9 8 8 6 6 6 7 9 5 4 4 4 4 5 4 3 5 5 4 7 6 6
23 16 14 13 20 21 18 21 17 16 9 21 20 22 25 28 25 14 15 19 22 20 20 19 18 14 10 11 8 9 8 8 8 7 9 6 5 4 2 2 3 4 4 5 6 5 3 3 5
5 18 15 15 17 19 18 21 11 17 11 12 28 25 25 19 4 4 9 13 20 17 19 19 16 12 14 9 12 8 7 7 7 7 9 7 4 3 3 1 2 3 3 4 3 2 1 1 4
12 12 10 20 16 15 15 18 20 11 11 7 14 12 12 9 5 8 2 10 17 18 18 19 15 10 12 7 6 5 6 8 8 7 6 6 4 3 3 1 2 3 3 4 3 4 6 6 9
9 7 10 14 17 17 8 18 22 9 6 10 18 19 13 8 6 4 4 7 17 20 22 18 13 10 9 7 6 4 4 4 4 6 7 7 6 5 3 1 2 4 4 5 5 4 4 2 2
7 8 15 14 16 10 11 15 21 13 8 6 15 18 27 6 8 15 9 13 8 16 17 19 15 12 9 9 6 5 6 5 3 5 5 6 5 3 3 1 4 4 4 5 4 4 3 2 2
12 13 9 15 14 17 17 13 17 13 7 7 12 10 12 13 10 11 14 8 18 10 16 14 15 17 15 9 5 4 4 2 3 4 6 8 6 7 6 5 6 5 5 5 4 5 4 2 3
7 11 11 8 17 11 18 15 12 10 7 15 12 10 6 7 7 7 6 11 11 10 9 15 15 12 8 4 4 3 4 3 4 5 10 8 7 7 7 6 5 7 7 5 7 4 6 5 9
16 15 13 17 13 10 16 18 13 9 7 5 17 13 11 8 4 13 8 8 17 16 12 10 14 15 11 5 3 3 4 6 6 7 10 8 11 9 8 7 7 7 5 7 7 6 4 3 5
16 14 15 12 15 16 13 15 11 8 8 22 15 14 14 18 12 5 11 6 3 31 15 14 17 12 10 9 3 5 10 8 8 6 7 7 10 9 8 8 6 5 6 5 5 5 7 4 4
15 18 18 15 12 10 15 11 14 11 8 21 15 11 14 18 17 14 6 9 6 12 26 11 15 17 8 11 7 12 8 9 4 4 6 6 8 8 7 7 6 6 5 6 4 5 4 4 4
16 15 15 14 3 5 8 6 13 16 16 7 14 11 9 10 17 16 13 13 21 10 24 16 14 12 7 8 8 6 11 10 5 7 9 7 6 7 7 7 7 7 5 5 5 5 5 3 2
10 12 5 4 0 2 9 9 14 9 21 6 11 13 12 9 8 9 11 2 10 15 12 7 8 4 6 8 8 14 16 11 9 8 6 5 4 5 7 7 6 4 4 3 2 2 5 3 3
13 5 4 3 1 4 8 4 11 18 21 13 16 18 15 12 10 14 15 9 7 13 8 5 7 8 7 7 10 15 14 10 12 10 6 7 4 3 4 4 4 2 2 2 2 2 3 2 3
9 8 7 6 5 7 8 7 11 20 21 18 19 21 18 15 14 16 16 17 18 19 14 11 8 6 8 9 11 10 9 5 4 5 6 5 5 4 4 4 3 2 3 2 3 2 3 4 3
6 5 12 5 4 0 5 8 12 20 19 11 20 21 22 19 17 18 14 12 13 14 15 13 9 11 12 10 8 6 8 9 8 9 11 6 5 4 6 4 3 3 4 4 4 3 4 4 4
6 15 13 6 9 6 11 8 15 9 18 11 12 10 16 19 17 12 14 17 15 16 13 13 13 12 10 12 9 9 10 10 10 10 9 9 7 6 6 4 5 5 5 6 6 4 5 5 4
3 3 3 2 2 3 1 8 7 16 11 12 20 17 20 11 13 11 11 11 16 14 14 18 17 14 13 12 10 11 8 10 10 10 8 8 7 6 6 6 6 6 6 7 6 6 7 7 6
6 7 7 5 1 2 6 7 9 4 10 10 11 16 15 8 6 5 9 16 11 16 17 18 15 14 13 12 12 12 11 11 11 9 8 8 7 6 6 6 6 6 6 7 7 7 6 7 7
Wind_Direction
308 297 287 269 27 187 242 249 237 148 93 333 245 276 24 50 117 156 116 121 125 128 132 131 131 128 127 128 128 124 122 119 115 114 113 109 103 100 95 96 99 98 97 94 88 81 76 72 61
318 322 279 255 154 253 264 255 256 168 162 179 225 271 20 66 92 116 105 129 127 130 128 132 132 130 130 131 130 127 123 120 121 122 119 115 115 111 107 104 101 103 102 100 97 92 89 77 56
284 248 358 174 216 223 249 258 157 167 163 214 174 100 301 111 122 101 126 126 124 124 128 136 134 134 134 135 133 128 126 129 131 129 129 127 120 115 111 109 112 115 116 115 113 111 105 93 35
266 271 288 216 242 234 241 262 140 187 224 278 13 81 97 141 87 122 127 125 123 119 126 133 132 133 135 135 132 131 134 135 135 134 132 128 124 120 118 123 133 133 123 122 126 127 129 205 278
204 269 238 220 243 259 254 246 246 210 223 136 58 146 100 92 108 121 125 128 123 117 125 128 131 133 136 135 135 138 138 139 140 138 135 130 130 131 131 132 133 125 131 149 161 173 203 242 273
265 191 237 226 240 244 257 260 268 192 218 107 106 248 101 118 119 130 128 136 119 121 121 129 133 135 139 140 143 143 143 144 143 140 139 140 145 144 139 148 154 154 174 201 204 217 243 252 261
206 278 235 259 234 245 249 248 254 265 200 154 133 40 322 124 128 132 141 120 123 123 124 126 131 140 142 145 146 145 145 142 144 143 147 149 152 155 158 164 174 182 202 220 229 239 254 263 265
199 236 258 236 246 255 258 254 240 248 351 120 122 152 8 357 126 138 130 128 128 127 129 132 135 135 133 144 145 144 146 146 150 152 153 155 159 170 176 187 197 205 216 226 239 248 252 259 262
257 232 237 233 225 237 276 276 270 246 98 45 34 116 155 321 358 144 123 128 126 133 139 140 146 146 139 132 153 148 154 154 155 157 158 161 169 193 200 204 211 212 217 222 231 241 247 253 260
194 218 233 258 250 248 269 260 276 13 94 98 106 113 106 294 328 337 149 150 143 147 152 153 154 160 150 151 143 144 156 149 156 162 164 178 199 196 206 214 217 215 216 223 235 242 249 255 254
245 236 255 241 260 268 273 284 307 304 136 153 159 167 166 165 207 192 175 159 150 157 159 162 162 167 160 142 153 159 161 166 177 181 186 199 194 214 213 215 216 195 223 231 233 247 238 243 237
233 244 247 260 244 265 271 280 284 282 268 150 165 178 174 183 204 179 171 159 156 163 166 159 166 176 165 151 165 167 173 180 184 192 190 186 198 225 183 189 205 198 220 234 242 238 238 229 232
233 247 252 250 262 272 285 273 276 281 227 141 154 174 188 185 200 184 156 158 155 167 165 166 170 171 157 159 176 173 184 188 187 185 192 186 190 204 215 217 168 193 213 216 240 242 264 283 266
265 231 255 251 252 255 266 277 288 272 262 226 150 177 183 205 197 171 143 151 158 165 167 164 171 152 158 169 179 179 184 186 185 182 189 184 178 182 165 158 283 291 264 258 225 209 241 300 338
260 280 252 245 247 253 251 278 267 284 221 110 105 148 200 180 76 46 280 172 152 148 146 159 166 146 138 148 146 154 182 155 176 180 157 173 171 153 141 128 304 267 268 272 291 319 6 29 47
275 255 255 246 238 245 192 256 267 267 208 147 149 123 289 256 146 44 5 264 156 152 156 159 161 141 131 125 120 122 125 98 132 133 159 161 166 164 130 198 307 335 10 19 23 20 39 75 264
248 242 237 249 222 222 208 240 258 266 236 164 151 172 171 195 190 156 208 281 205 162 157 153 149 148 135 131 133 151 150 126 142 132 152 157 157 164 158 75 16 26 38 33 19 23 43 12 333
210 222 242 237 242 217 231 228 243 254 248 190 154 161 158 180 190 221 172 234 256 156 152 152 155 158 152 152 138 116 118 144 85 86 108 88 79 72 77 60 53 46 51 40 28 22 3 342 320
255 254 231 253 240 194 231 247 231 223 233 252 165 146 91 102 126 21 293 287 286 151 148 152 157 158 124 114 113 113 173 124 106 87 97 92 82 69 70 66 52 61 56 48 37 11 2 359 359
245 244 244 245 244 201 221 248 241 207 227 193 134 141 133 106 110 116 103 284 1 327 171 151 155 140 137 126 177 185 133 99 82 79 85 79 79 78 74 70 49 73 66 45 44 41 6 348 10
239 245 248 226 241 229 212 250 231 236 213 99 106 121 115 123 120 125 108 98 333 323 206 159 149 144 135 143 157 133 113 109 105 92 88 90 83 77 76 72 72 78 69 56 49 37 41 0 342
229 236 244 262 220 218 203 237 232 236 255 125 145 144 153 148 140 146 126 108 84 267 293 181 156 148 150 152 153 138 134 124 120 123 106 87 83 86 85 85 79 77 75 59 49 38 22 33 347
238 245 240 255 248 260 226 218 222 234 238 154 138 161 154 155 145 149 157 160 147 171 279 205 168 135 148 146 138 119 108 121 119 105 97 98 97 103 99 86 72 63 64 68 62 32 14 358 31
268 247 305 265 98 311 253 212 236 233 235 139 134 158 166 159 144 140 153 162 227 188 223 195 135 123 127 115 131 121 123 121 120 120 124 120 106 86 77 74 89 89 76 82 80 48 20 23 3
251 68 16 314 117 203 308 3 242 223 253 161 161 164 161 160 166 157 159 166 225 154 163 139 134 141 136 125 125 124 126 129 142 140 148 123 95 84 108 102 92 81 90 89 86 45 360 342 2
213 132 137 184 169 229 242 204 244 239 246 160 170 163 155 171 169 178 167 161 191 157 164 151 149 122 97 87 96 123 118 123 117 122 120 113 121 146 123 110 109 83 44 37 24 350 350 8 352
185 146 178 249 95 134 191 246 299 282 256 202 169 165 166 179 182 181 189 178 148 146 161 144 129 117 111 106 106 91 99 102 104 95 95 102 111 86 63 62 61 24 15 6 5 20 357 348 331
223 194 191 213 173 177 208 214 222 217 222 183 149 173 180 185 197 178 178 161 157 160 149 112 112 112 122 100 89 90 95 100 95 88 85 79 72 58 43 34 18 4 6 13 25 11 345 7 354
276 182 82 210 181 71 184 230 240 228 184 162 151 181 178 149 192 164 146 143 161 141 125 124 121 128 115 99 99 97 89 85 81 76 68 69 64 51 39 22 11 9 18 16 21 4 13 37 20
249 290 120 127 353 236 161 277 284 291 163 134 133 122 133 109 96 325 169 161 147 131 128 128 130 122 112 112 102 94 84 74 73 67 61 60 51 36 32 20 16 13 19 10 29 44 26 26 2